Location: Newark
(48.3983°N, 16.0611°E)
Time: 19:07:36
(UTC+00:00)

ISS - Pass Details

Date: 24 January 2020
Orbit: 416 x 422 km, 51.6° (Epoch: 20 February)

Event Time Altitude Azimuth Distance (km) Brightness Sun altitude
Rises 17:21:26 0° 240° (WSW) 2,370 1.5 -16.5°
Reaches altitude 10° 17:23:32 10° 239° (WSW) 1,507 0.1 -16.8°
Maximum altitude 17:26:54 72° 154° (SSE) 447 -3.8 -17.4°
Enters shadow 17:27:34 52° 89° (E) 531 -3.7 -17.5°
